19.05.2024;16:00;97
19.05.2024;15:00;95
19.05.2024;14:00;93
19.05.2024;13:00;94
19.05.2024;12:00;87
19.05.2024;11:00;77
19.05.2024;10:00;69
19.05.2024;09:00;65
19.05.2024;08:00;55
19.05.2024;07:00;36
19.05.2024;06:00;52
19.05.2024;05:00;54
19.05.2024;04:00;59
19.05.2024;03:00;72
19.05.2024;02:00;48
19.05.2024;01:00;28
19.05.2024;00:00;27
18.05.2024;23:00;37
18.05.2024;22:00;40
18.05.2024;21:00;52
18.05.2024;20:00;81
18.05.2024;19:00;84
18.05.2024;18:00;86
18.05.2024;17:00;85
18.05.2024;16:00;85
18.05.2024;15:00;78
18.05.2024;14:00;70
18.05.2024;13:00;70
18.05.2024;12:00;70
18.05.2024;11:00;65
18.05.2024;10:00;53
18.05.2024;09:00;56
18.05.2024;08:00;57
18.05.2024;07:00;63
18.05.2024;06:00;56
18.05.2024;05:00;58
18.05.2024;04:00;45
18.05.2024;03:00;52
18.05.2024;02:00;50
18.05.2024;01:00;49
18.05.2024;00:00;44
17.05.2024;23:00;24
17.05.2024;22:00;41
17.05.2024;21:00;55
17.05.2024;20:00;66
17.05.2024;19:00;58
17.05.2024;18:00;52
17.05.2024;17:00;62
